Back to catalog

STARLINK-3281

AliveCommunicationsVLEO
NORAD 50183·PAYLOAD·🇺🇸 United States

Launched Dec 18, 2021 from Vandenberg Space Force Base

Loading…

Next Passes (next 24 hours)

TLE

FreshSource: CelesTrak SupGP

Epoch: Sep 14, 2026, 13:13 UTC

1 50183C 21125AD  26257.55118056  .00043055  00000+0  25433-2 0  2573
2 50183  53.1586 120.0181 0002892  99.8758  68.2625 15.10982764    10

Track STARLINK-3281 in real time with AllMySat

Download on the App Store